Lexington Weather

Lexington, Massachusetts, USA

34°F
4/16/2021 10:29am 
  • Lexington Conditions: Snow, Fog, Overcast
  • Temperature: 34.0°F / 1.1°C 
  • Dew Point: 32.7°F 
  • Relative Humidity: 95
  • Wind: Calm, 10-min avg: Calm, gust: None
  • Barometer: 29.48 in Steady
  • Visibility: ½ mile
  • Snow Today: 1.3 in
  •   

Regional Weather Roundup
for Boston / Norton, MA

        
000
ASUS41 KBOX 130304
RWRBOX

REGIONAL WEATHER ROUNDUP
NATIONAL WEATHER SERVICE BOSTON/NORTON MA
1100 PM EDT MON APR 12 2021

NOTE:  "FAIR" INDICATES FEW OR NO CLOUDS BELOW 12,000 FEET WITH NO 
SIGNIFICANT WEATHER AND/OR OBSTRUCTIONS TO VISIBILITY.

MAZALL-130400-
EASTERN MASSACHUSETTS
  
CITY           SKY/WX    TMP DP  RH WIND       PRES   REMARKS
BOSTON         MOCLDY    44  36  73 NW7       29.96S                  
BEVERLY        NOT AVBL                                               
LAWRENCE       PTCLDY    39  36  89 CALM      29.98S                  
BEDFORD        PTCLDY    37  34  89 CALM      29.96R                  
BLUE HILL        N/A     38  36  92 N7        29.93S                  
NORWOOD        PTCLDY    42  37  82 N3        29.96S                  
MARSHFIELD     MOCLDY    41  39  93 CALM      29.94S                  
PLYMOUTH       MOCLDY    39  37  92 NW5       29.93S                  
TAUNTON        PTCLDY    36  34  92 CALM      29.94S                  
NEW BEDFORD    PTCLDY    41  37  86 N3        29.93S                  
$$

MAZALL-130400-
CAPE COD AND THE ISLANDS
  
CITY           SKY/WX    TMP DP  RH WIND       PRES   REMARKS
FALMOUTH       MOCLDY    39  37  93 N7        29.91S                  
HYANNIS        MOCLDY    41  36  82 N6        29.90S                  
CHATHAM        MOCLDY    42  36  79 NE5       29.92S                  
PROVINCETOWN   PTCLDY    37  36  96 N5        29.94S                  
NANTUCKET      PTCLDY    39  36  89 NE8       29.90S                  
MARTHAS VNYRD  PTCLDY    41  36  82 NE7       29.91S                  
$$
 
MAZALL-130400-
CENTRAL AND WESTERN MASSACHUSETTS
  
CITY           SKY/WX    TMP DP  RH WIND       PRES   REMARKS
WORCESTER      PTCLDY    39  33  79 NE3       29.94S                  
FITCHBURG      PTCLDY    39  34  82 CALM      29.97S                  
ORANGE         PTCLDY    39  35  86 CALM      29.97S                  
SPRINGFIELD    PTCLDY    41  35  78 NE5       29.96R                  
WESTFIELD      PTCLDY    44  36  73 N6        29.96R                  
NORTH ADAMS    CLOUDY    43  38  82 CALM      29.96R                  
PITTSFIELD     CLOUDY    44  37  76 E5        29.94R                  
$$
 
RIZALL-130400-
RHODE ISLAND
  
CITY           SKY/WX    TMP DP  RH WIND       PRES   REMARKS
PROVIDENCE     MOCLDY    42  36  79 NE7       29.95S                  
NEWPORT        PTCLDY    41  36  82 N6        29.93S                  
BLOCK ISLAND   PTCLDY    42  36  79 NE12G22   29.94R                  
SMITHFIELD     MOCLDY    39  38  96 NE6       29.95S                  
WESTERLY       PTCLDY    42  36  79 NE6       29.94R                  
$$
 
CTZALL-130400-
CONNECTICUT
  
CITY           SKY/WX    TMP DP  RH WIND       PRES   REMARKS
BRADLEY INTL   PTCLDY    43  34  70 NE5       29.96R                  
HARTFORD       PTCLDY    45  34  65 NE5       29.97R                  
BRIDGEPORT     CLOUDY    49  41  74 NE8       29.94R                  
DANBURY        CLOUDY    48  39  71 NE6       29.96R                  
GROTON         PTCLDY    44  36  73 NE10      29.94R                  
NEW HAVEN      CLOUDY    49  39  68 NE8       29.94R                  
CHESTER        CLOUDY    45  37  76 NE7G13    29.94R                  
MERIDEN        MOCLDY    46  35  65 VRB3      29.96R                  
WILLIMANTIC    MOCLDY    43  36  76 NE6       29.96R                  
OXFORD         CLOUDY    44  38  79 NE13      29.95R                  
$$

MEZ002-015-021-024-NHZ003-005-008-011-012-014-VTZ005-008-130400-
NORTHERN NEW ENGLAND
  
CITY           SKY/WX    TMP DP  RH WIND       PRES   REMARKS
PORTLAND ME    MOCLDY    39  33  79 CALM      29.98S                  
BANGOR ME      CLOUDY    49  37  63 N12       30.01R                  
CONCORD NH     CLEAR     36  31  82 CALM      29.98S                  
MANCHESTER NH  PTCLDY    41  32  70 CALM      29.96S                  
NASHUA NH      PTCLDY    37  35  92 NW3       29.98S                  
PORTSMOUTH NH  PTCLDY    38  32  79 N6        29.98S                  
JAFFREY NH     PTCLDY    37  32  82 CALM      29.96R                  
KEENE NH       PTCLDY    39  35  86 CALM      29.99R                  
BURLINGTON VT  CLOUDY    58  39  49 CALM      29.94R                  
MT. WASHINGTON FOG       27  27 100 E38G46      N/A  VSB 0   WCI   9  
$$

NYZ052-076-130400-
EASTERN NEW YORK
  
CITY           SKY/WX    TMP DP  RH WIND       PRES   REMARKS
ALBANY         MOCLDY    43  38  82 CALM      29.97R                  
NEW YORK CITY  LGT RAIN  47  43  86 E9        29.93S                  
$$
 
ANZALL-130400-
MARINE OBSERVATIONS
  
STATION/POSITION TIME  TEMP    WIND        PRES    VSBY  WAVE
                       AIR SEA DIR/SP/G                  HT/PER
                 (UTC) (F)     (DEG/KT/KT) (MB)    (MI)  (FT/S)
BOSTON BUOY      0240   43 44  350/  8/ 10 1014.5F
BUZZARDS BAY     0200           50/ 18/ 20 1014.3R
NANTUCKET SOUND  0240      47                N/A
MASS BAY-STELLWA 0204   44     360/  6/  8 1013.3R  1 7/8  5/ 8
ISLE OF SHOALS   0200   43     340/  6/  6 1014.4R
S OF BLOCK IS    0226      44                N/A           6/ 6
$$

......................KEY.........................
  SKY/WX - SKY CONDITION/PRESENT WEATHER
  TMP    - TEMPERATURE IN FAHRENHEIT
  DWPT   - DEWPOINT IN FAHRENHEIT
  RH     - RELATIVE HUMIDITY IN PERCENT
  WIND   - DIRECTION AND SPEED IN MPH
  PRES   - MEAN SEA LEVEL PRESSURE IN INCHES OF HG
  WCI    - WIND CHILL INDEX
  VSB    - VISIBILITY IN MILES
  HX     - HEAT INDEX
  TC     - TEMPERATURE IN CELSIUS
  VRB    - VARIABLE WIND DIRECTION
  N/A    - NOT AVAILABLE
  
      

Other recent Regional Weather Roundups

Fri Apr 16, 10:05am

Fri Apr 16, 9:04am

Fri Apr 16, 8:04am

Fri Apr 16, 7:04am

Fri Apr 16, 6:04am

Fri Apr 16, 5:04am

Fri Apr 16, 4:04am

Fri Apr 16, 3:04am

Fri Apr 16, 2:04am

Fri Apr 16, 1:04am

Fri Apr 16, 12:04am

Thu Apr 15, 11:05pm

Thu Apr 15, 10:04pm

Thu Apr 15, 9:04pm

Thu Apr 15, 8:04pm

Thu Apr 15, 7:05pm

Thu Apr 15, 6:04pm

Thu Apr 15, 5:05pm

Thu Apr 15, 4:04pm

Thu Apr 15, 3:05pm

Thu Apr 15, 2:04pm

Thu Apr 15, 1:05pm

Thu Apr 15, 12:04pm

Thu Apr 15, 11:04am

Thu Apr 15, 10:05am

Thu Apr 15, 9:04am

Thu Apr 15, 8:04am

Thu Apr 15, 7:04am

Thu Apr 15, 6:04am

Thu Apr 15, 5:04am

Thu Apr 15, 4:04am

Thu Apr 15, 3:04am

Thu Apr 15, 2:04am

Thu Apr 15, 1:04am

Thu Apr 15, 12:04am

Wed Apr 14, 11:04pm

Wed Apr 14, 10:04pm

Wed Apr 14, 9:04pm

Wed Apr 14, 8:04pm

Wed Apr 14, 7:04pm

Wed Apr 14, 6:04pm

Wed Apr 14, 5:05pm

Wed Apr 14, 4:04pm

Wed Apr 14, 3:05pm

Wed Apr 14, 2:04pm

Wed Apr 14, 1:05pm

Wed Apr 14, 12:04pm

Wed Apr 14, 11:04am

Wed Apr 14, 10:04am

Wed Apr 14, 9:04am

Wed Apr 14, 8:04am

Wed Apr 14, 7:04am

Wed Apr 14, 6:04am

Wed Apr 14, 5:04am

Wed Apr 14, 4:04am

Wed Apr 14, 3:04am

Wed Apr 14, 2:04am

Wed Apr 14, 1:04am

Wed Apr 14, 12:04am

Tue Apr 13, 11:04pm

Tue Apr 13, 10:05pm

Tue Apr 13, 9:05pm

Tue Apr 13, 8:05pm

Tue Apr 13, 7:04pm

Tue Apr 13, 6:04pm

Tue Apr 13, 5:05pm

Tue Apr 13, 4:04pm

Tue Apr 13, 3:04pm

Tue Apr 13, 2:05pm

Tue Apr 13, 1:04pm

Tue Apr 13, 12:05pm

Tue Apr 13, 11:05am

Tue Apr 13, 10:04am

Tue Apr 13, 9:04am

Tue Apr 13, 8:04am

Tue Apr 13, 7:04am

Tue Apr 13, 6:04am

Tue Apr 13, 5:04am

Tue Apr 13, 4:04am

Tue Apr 13, 3:04am

Tue Apr 13, 2:04am

Tue Apr 13, 1:04am

Tue Apr 13, 12:05am

Mon Apr 12, 10:04pm

Mon Apr 12, 9:04pm

Mon Apr 12, 8:04pm

Mon Apr 12, 7:05pm

Mon Apr 12, 6:04pm

Mon Apr 12, 5:04pm

Mon Apr 12, 4:04pm

Mon Apr 12, 3:05pm

Mon Apr 12, 2:04pm

Mon Apr 12, 1:05pm

Mon Apr 12, 12:04pm

Mon Apr 12, 11:04am

Mon Apr 12, 10:04am

Mon Apr 12, 9:04am

Mon Apr 12, 8:04am

Mon Apr 12, 7:04am

Mon Apr 12, 6:04am

Mon Apr 12, 5:04am

Mon Apr 12, 4:04am

Mon Apr 12, 3:04am

Mon Apr 12, 2:04am

Mon Apr 12, 1:05am

Mon Apr 12, 12:04am

Sun Apr 11, 11:04pm

Sun Apr 11, 10:04pm

Sun Apr 11, 9:04pm

Sun Apr 11, 8:04pm

Sun Apr 11, 7:04pm

Sun Apr 11, 6:05pm

Sun Apr 11, 5:05pm

Sun Apr 11, 4:04pm

Sun Apr 11, 3:05pm

Sun Apr 11, 2:05pm

Sun Apr 11, 1:05pm

Sun Apr 11, 12:04pm

Sun Apr 11, 11:05am

Sun Apr 11, 10:05am

Sun Apr 11, 9:04am

Sun Apr 11, 8:04am

Sun Apr 11, 7:04am

Sun Apr 11, 6:04am

Sun Apr 11, 5:04am

Sun Apr 11, 4:04am

Sun Apr 11, 3:04am

Sun Apr 11, 2:04am

Sun Apr 11, 1:05am

Sun Apr 11, 12:04am

Sat Apr 10, 11:05pm

Sat Apr 10, 10:04pm

Sat Apr 10, 9:04pm

Sat Apr 10, 8:04pm

Sat Apr 10, 7:05pm

Sat Apr 10, 6:04pm

Sat Apr 10, 5:04pm

Sat Apr 10, 4:04pm

Sat Apr 10, 3:04pm

Sat Apr 10, 2:05pm

Sat Apr 10, 1:04pm

Sat Apr 10, 12:04pm

Sat Apr 10, 11:04am

Sat Apr 10, 10:04am

Sat Apr 10, 9:04am

Sat Apr 10, 8:04am

Sat Apr 10, 7:04am

Sat Apr 10, 6:04am

Sat Apr 10, 5:04am

Sat Apr 10, 4:04am

Sat Apr 10, 3:04am

Sat Apr 10, 2:04am

Sat Apr 10, 1:05am

Sat Apr 10, 12:04am

Fri Apr 9, 11:04pm

Fri Apr 9, 10:05pm

Fri Apr 9, 9:04pm

Fri Apr 9, 8:05pm

Fri Apr 9, 7:05pm

Fri Apr 9, 6:04pm

Fri Apr 9, 5:04pm

Fri Apr 9, 4:05pm

Fri Apr 9, 3:05pm

Fri Apr 9, 2:04pm

Fri Apr 9, 1:04pm

Fri Apr 9, 12:04pm

Fri Apr 9, 11:05am

Meta data:

ID: db807d4c-1212-4524-ac38-d4b2d3971d41
Link: https://api.weather.gov/products/db807d4c-1212-4524-ac38-d4b2d3971d41